Regional Weather Roundup
Issued by NWS

Home | Current Version | Previous Version | Graphics & Text | Print | Product List | Glossary On
Versions: 1 2 3 4 5 6 7 8 9 10 11 12 13 14 15 16 17 18 19 20 21 22 23 24 25 26 27 28 29 30 31 32 33 34 35 36 37 38 39 40 41 42 43 44 45 46 47 48 49 50
000
ASUS43 KMPX 312210
RWRMN
WEATHER ROUNDUP FOR MINNESOTA
NATIONAL WEATHER SERVICE TWIN CITIES/CHANHASSEN MN
500 PM CDT MON AUG 31 2015


NOTE: "FAIR" INDICATES FEW OR NO CLOUDS BELOW 12,000 FEET WITH NO
SIGNIFICANT WEATHER AND/OR OBSTRUCTIONS TO VISIBILITY. N/A MEANS
CURRENT SKY AND/OR WEATHER CONDITIONS ARE NOT AVAILABLE.

MNZ060>063-068>070-312300-
   Twin Cities Metro

CITY           SKY/WX    TMP DP  RH WIND       PRES   REMARKS
TWIN CITIES    MOSUNNY   85  68  56 S15G28    29.88F
ST PAUL        MOSUNNY   84  70  62 S13G23    29.88S
CRYSTAL        SUNNY     86  69  56 S13G23    29.85F HX  90
BLAINE         MOSUNNY   86  70  58 S15G25    29.87F HX  90
LAKEVILLE      SUNNY     82  70  65 S9G17     29.90S
EDEN PRAIRIE   SUNNY     85  69  58 S16G24    29.86F
SOUTH ST PAUL  MOSUNNY   84  68  57 S12       29.89S
LAKE ELMO      PTSUNNY   82  72  69 S10G16    29.90F
$$
MNZ001>005-007-008-013>017-022>024-027-028-312300-
   Northwest Minnesota

CITY           SKY/WX    TMP DP  RH WIND       PRES   REMARKS
BEMIDJI        CLOUDY    78  64  62 SW9       29.81R
HALLOCK        CLOUDY    81  61  50 W9        29.75S
ROSEAU         CLOUDY    77  64  65 SW3       29.77R
WARROAD        CLOUDY    75  66  73 W3        29.76S
THIEF RVR FALL PTSUNNY  N/A N/A N/A CALM      29.79R
CROOKSTON      CLOUDY    79  61  53 W7        29.79S
FOSSTON        MOSUNNY   75  63  64 N5        29.83R
DETROIT LAKES  PTSUNNY   79  64  61 W8        29.84R
MOORHEAD       CLOUDY    77  66  69 N3        29.82R
PARK RAPIDS    PTSUNNY   83  65  54 W12       29.82R
MAHNOMEN       FAIR      74  65  71 N9        29.82R
$$
MNZ006-009>011-018-025>026-312300-
   North Central Minnesota

CITY           SKY/WX    TMP DP  RH WIND       PRES   REMARKS
BAUDETTE       PTSUNNY   73  65  75 SW7       29.78R
FLAG ISLAND    CLOUDY    75  63  64 CALM      29.73R
INTL FALLS     MOSUNNY   80  64  58 W13G23    29.76R
WASKISH        CLOUDY    72  66  83 W9        29.81R
BIG FORK       MOSUNNY   82  63  51 SW15G21   29.80R
LONGVILLE      MOSUNNY   82  66  57 S9        29.82R
GRAND RAPIDS     N/A     81  64  57 S13G21    29.82S
CRANE LAKE     MOSUNNY   81  61  50 S7G16     29.78R
COOK           MOSUNNY   82  63  51 S12G18    29.81R
WALKER         FAIR      81  64  57 W12G17    29.81R
$$
MNZ012-019>021-037-312300-
   Northeast Minnesota

CITY           SKY/WX    TMP DP  RH WIND       PRES   REMARKS
DULUTH         MOSUNNY   80  67  64 SW12      29.85S
ELY            SUNNY     81  63  54 SW13G23   29.81R
HIBBING        MOSUNNY   83  63  50 SW7G18    29.82R
EVELETH        SUNNY     81  64  57 S16G23    29.83S
DULUTH HARBOR  SUNNY     82  70  65 S21       29.82S
TWO HARBORS    SUNNY     82  72  69 S12       29.82S
SILVER BAY     SUNNY     81  66  61 S10G17    29.82S
GRAND MARAIS     N/A     65  60  84 SW7       29.82F
G MARAIS ARPRT SUNNY     72  61  68 S10G17    29.88S
$$
MNZ029>031-032-039>041-046>048-054>057-064-312300-
   West Central Minnesota

CITY           SKY/WX    TMP DP  RH WIND       PRES   REMARKS
FERGUS FALLS   MOSUNNY   81  64  57 W8        29.81R
WHEATON        MOSUNNY   79  64  61 NW8       29.84R
MORRIS         MOSUNNY   88  66  48 SW8       29.82R HX  90
ALEXANDRIA     MOSUNNY   83  67  58 SW15      29.85S
ELBOW LAKE     FAIR      82  66  58 W6        29.82R HAZE
WADENA         MOSUNNY   82  64  54 SW13G20   29.82R
GLENWOOD       SUNNY     82  70  65 S16       29.86R
APPLETON       SUNNY     88  64  45 SW12      29.82R
BENSON         SUNNY     84  66  54 SW10G17   29.83R
ORTONVILLE     MOSUNNY   86  63  45 W8        29.82S
MADISON        MOSUNNY   82  64  54 SW9       29.83S
WILLMAR        FAIR      82  70  65 S6        29.86S
$$
MNZ033>034-036-042>043-049>051-058-059-312300-
   Central Minnesota

CITY           SKY/WX    TMP DP  RH WIND       PRES   REMARKS
ST CLOUD       SUNNY     83  69  62 S16G23    29.86R
SAUK CENTRE    FAIR      82  69  65 S13G22    29.85S
PAYNESVILLE    SUNNY     82  67  59 SE9G20    29.86F
AITKIN         SUNNY     82  70  65 S13G23    29.83R
PINE RIVER     MOSUNNY   82  68  61 SW9       29.85S
BRAINERD       SUNNY     83  67  58 S18G25    29.84R
STAPLES        MOSUNNY   82  66  57 SW12G18   29.83S
LONG PRAIRIE   FAIR      81  68  65 S15G21    29.85S
LITTLE FALLS   SUNNY     82  64  54 S13G18    29.85S
LITCHFIELD     SUNNY     84  70  61 S5        29.86S
BUFFALO        SUNNY     82  66  58 S9G21     29.88S
MAPLE LAKE     SUNNY     82  70  66 S9G20     29.87S
$$
MNZ037-044-045-052-053-312300-
   East Central Minnesota

CITY           SKY/WX    TMP DP  RH WIND       PRES   REMARKS
PRINCETON      SUNNY     84  70  61 S13       29.86S
MORA           SUNNY     79  64  61 S15       29.87S
CAMBRIDGE      SUNNY     86  68  54 S12G21    29.85S
RUSH CITY      SUNNY     83  69  63 S9G18     29.87S
MOOSE LAKE     SUNNY     81  66  61 SW12G22   29.84R
HINCKLEY       FAIR      82  70  65 S14G20    29.86S
CLOQUET        SUNNY     81  66  61 S10G21    29.86R
MCGREGOR       SUNNY     81  68  65 S14G21    29.85R
$$
MNZ071>073-080-081-089-090-097-098-312300-
   Southwest Minnesota

CITY           SKY/WX    TMP DP  RH WIND       PRES   REMARKS
MONTEVIDEO     SUNNY     88  70  55 SW14      29.86R HX  92
GRANITE FALLS  SUNNY     83  69  63 S13       29.86S
CANBY          MOSUNNY   85  66  52 S6        29.86S
MARSHALL       SUNNY     82  66  57 SW12G22   29.88R
REDWOOD FALLS  SUNNY     84  67  56 S16       29.86S
OLIVIA         SUNNY     81  64  57 S12       29.86S
PIPESTONE      MOSUNNY   81  68  65 SW14      29.89S
WINDOM         SUNNY     82  66  57 S16G22    29.90S
WORTHINGTON    SUNNY     81  64  57 S14G23    29.90S
JACKSON        MOSUNNY   81  68  65 S16       29.92S
TRACY          SUNNY     82  68  62 SW14G20   29.87S
SLAYTON        SUNNY     81  66  60 S16       29.90S
$$
MNZ065>067-074>077-082>085-091>093-312300-
   South Central Minnesota

CITY           SKY/WX    TMP DP  RH WIND       PRES   REMARKS
MANKATO        SUNNY     82  68  61 S14G25    29.89F
NEW ULM        SUNNY     82  66  57 S16       29.88S
ST JAMES       MOSUNNY   84  70  61 S15       29.90S
FAIRMONT       SUNNY     82  66  57 S14G20    29.90S
GLENCOE        MOSUNNY   84  71  65 S13G18    29.87S
FARIBAULT      SUNNY     82  72  69 S8        29.91S
OWATONNA       SUNNY     82  70  65 S10       29.92S
WASECA         PTSUNNY   82  70  65 S12       29.93R
ALBERT LEA     SUNNY     84  70  61 S8G18     29.92F
$$
MNZ078>079-086>088-094>096-312300-
   Southeast Minnesota

CITY           SKY/WX    TMP DP  RH WIND       PRES   REMARKS
ROCHESTER      SUNNY     82  71  69 S14       29.95F
RED WING       SUNNY     86  70  58 SW8       29.89F HX  90
STANTON        MOSUNNY   84  70  62 S5        29.90R
DODGE CENTER   SUNNY     81  72  74 S13       29.93F
WINONA         SUNNY     82  68  61 SW7       29.94F
AUSTIN         MOSUNNY   84  72  65 S13G20    29.94S
PRESTON        MOSUNNY   81  70  69 S13       29.97F
$$
ABBREVIATIONS USED IN REMARKS
   TC - TEMPERATURES IN CELSIUS
  WCI - WIND CHILL INDEX
   HX - HEAT INDEX
  VSB - VISIBILITY
$$


USA.gov is the U.S. government's official web portal to all federal, state and local government web resources and services.